Regional Weather Roundup
Issued by NWS

Home | Current Version | Previous Version | Text Only | Print | Product List | Glossary Off
Versions: 1 2 3 4 5 6 7 8 9 10 11 12 13 14 15 16 17 18 19 20 21 22 23 24 25 26 27 28 29 30 31 32 33 34 35 36 37 38 39 40 41 42 43 44 45 46 47 48 49 50

036
ASUS43 KDTX 090710
RWRMI
MICHIGAN HOURLY REGIONAL WEATHER ROUNDUP
NATIONAL WEATHER SERVICE DETROIT/PONTIAC MI
200 AM EST TUE FEB 09 2016

NOTE: "FAIR" INDICATES FEW OR NO CLOUDS BELOW 12,000 FEET WITH NO
SIGNIFICANT WEATHER AND/OR OBSTRUCTION TO VISIBILITY.

MIZ047>049-052>055-059>063-066>070-074>076-081>083-090800-
SOUTHEAST LOWER MICHIGAN

CITY           SKY/WX    TMP DP  RH WIND       PRES   REMARKS
ADRIAN         CLOUDY    31  26  82 W10       29.58F WCI  22
ALMA           CLOUDY    32  31  96 NW8       29.56F WCI  25
ANN ARBOR      CLOUDY    32  29  88 W12       29.55F WCI  23
BAD AXE        LGT SNOW  33  33  99 N13       29.47F WCI  24
CARO           CLOUDY    34  32  93 NW9       29.50F WCI  26
DETROIT CITY   CLOUDY    34  28  79 W6        29.53F WCI  29
DETROIT        CLOUDY    31  28  89 SW8       29.55F WCI  23
FLINT          LGT SNOW  35  30  82 W10       29.53F WCI  27
GROSSE ILE     MOCLDY    32  28  86 CALM      29.54F
HILLSDALE      CLOUDY    28  27  96 W12       29.56F WCI  18
HOWELL         LGT SNOW  32  32  99 W9        29.53F WCI  25

CITY           SKY/WX    TMP DP  RH WIND       PRES   REMARKS
JACKSON        CLOUDY    30  27  88 W9        29.56F FOG     WCI  22
LAMBERTVILLE   CLOUDY    32  27  82 W9        29.58F WCI  24
LANSING        LGT SNOW  32  30  92 W8        29.55F FOG     WCI  25
LAPEER         LGT SNOW  32  32 100 W7        29.50F WCI  26
MASON          CLOUDY    32  30  93 W8        29.55F WCI  25
MONROE         CLOUDY    33  29  86 W9        29.56S WCI  25
MT. CLEMENS    CLOUDY    34  31  86 W8        29.50F WCI  27
PONTIAC        LGT SNOW  32  29  88 W9        29.51F FOG     WCI  24
PORT HOPE        N/A     33  32  96 N5        29.46F WCI  29
PORT HURON     LGT SNOW  32  32 100 W7        29.50F WCI  26
TRI CITIES     LGT SNOW  34  31  88 NW13      29.54F FOG     WCI  25
MIDLAND        LGT SNOW  32  31  95 NW9       29.54F WCI  24
TROY           CLOUDY    35  31  86 W6        29.54F WCI  30
SAGINAW HB     LGT SNOW  34  32  93 NW9       29.52F WCI  26
$$
MIZ043>046-050>051-056>058-064>065-071>073-077>080-090800-
SOUTHWEST LOWER MICHIGAN

CITY           SKY/WX    TMP DP  RH WIND       PRES   REMARKS
BATTLE CREEK   CLOUDY    30  27  88 SW8       29.58F WCI  22
BENTON HARBOR  SNOW      31  28  89 NW12G25   29.63F VSB 1/2 WCI  22
BIG RAPIDS     CLOUDY    28  26  90 NW10      29.58S WCI  19
COLDWATER      CLOUDY    29  28  94 W9        29.59F WCI  20
FREMONT        CLOUDY    27  26  94 N14       29.61S WCI  16
HOLLAND        CLOUDY    31  28  89 NW10      29.61S WCI  22
GRAND RAPIDS   CLOUDY    33  30  88 NW8       29.58F WCI  26
IONIA          CLOUDY    32  29  89 W8        29.56F WCI  25
KALAMAZOO      CLOUDY    30  26  85 SW6       29.58F WCI  24
LUDINGTON      CLOUDY    25  22  87 N15       29.67S WCI  13
MARSHALL       CLOUDY    30  28  90 SW8       29.57F WCI  23
MOUNT PLEASANT CLOUDY    32  27  83 NW9       29.56S WCI  24
MUSKEGON       CLOUDY    29  23  78 NW17      29.63F WCI  17
SOUTH HAVEN    FLURRIES  32  29  90 N9G18     29.61S WCI  24
$$
MIZ016>042-090800-
NORTHERN LOWER MICHIGAN

CITY           SKY/WX    TMP DP  RH WIND       PRES   REMARKS
ALPENA         LGT SNOW  30  27  88 NW15      29.55F FOG     WCI  19
BEAVER ISLAND  CLOUDY    24  19  83 NW10G16   29.65F WCI  13
BELLAIRE       CLOUDY    26  22  84 N6        29.64F WCI  20
CADILLAC       CLOUDY    25  22  91 NW14      29.58S WCI  13
CHARLEVOIX     CLOUDY    25  22  86 NW10G18   29.66F WCI  15
FRANKFORT      CLOUDY    24  20  85 N9G17     29.67S WCI  15
GAYLORD        LGT SNOW  25  22  88 NW8       29.57S FOG     WCI  16
GRAYLING       CLOUDY    25  23  92 NW12G18   29.58S WCI  15
HARBOR SPRINGS FLURRIES  25  21  84 W5        29.61F WCI  20
HOUGHTON LAKE  CLOUDY    27  24  89 NW9       29.56S WCI  18
MANISTEE       CLOUDY    25  18  74 N9        29.67S WCI  15
OSCODA         LGT SNOW  31  30  96 NW12      29.51S WCI  22
PELLSTON       CLOUDY    25  20  81 NW13G20   29.62F WCI  14
ROGERS CITY    LGT SNOW  28  26  92 NW10G17   29.58F WCI  19
TRAVERSE CITY  CLOUDY    26  20  77 N10       29.64F WCI  16
$$
MIZ007>008-015-090800-
EASTERN UPPER MICHIGAN

CITY           SKY/WX    TMP DP  RH WIND       PRES   REMARKS
KINROSS        CLOUDY    27  27 100 NW13      29.59F WCI  16
MACKINAC ISLAN CLOUDY    25  24  97 NW12      29.60F WCI  14
NEWBERRY       CLOUDY    22  19  87 NW9G16    29.62S WCI  12
S. S. MARIE    LGT SNOW  28  25  88 W10       29.58F FOG     WCI  19
MUNISING         N/A     21  15  78 N18       29.68F WCI   6
$$
MIZ004>006-011>014-085-090800-
CENTRAL UPPER MICHIGAN

CITY           SKY/WX    TMP DP  RH WIND       PRES   REMARKS
MANISTIQUE     CLOUDY    20  15  81 N13       29.65F WCI   8
ESCANABA       CLEAR     12   7  79 NW7       29.71F WCI   2
MENOMINEE      CLOUDY    16   7  67 N10       29.73F WCI   3
SAWYER-GWINN   FLURRIES  12   8  85 N17       29.68F WCI  -5
$$
MIZ001>003-009>011-084-090800-
WESTERN UPPER MICHIGAN

CITY           SKY/WX    TMP DP  RH WIND       PRES   REMARKS
IRON MOUNTAIN  PTCLDY    13   5  70 N10       29.70F WCI   0
HOUGHTON       CLOUDY    11   5  77 N14       29.76F HAZE    WCI  -5
COPPER HARBOR    N/A     17  12  80 NE24G31   29.76F WCI  -1
IRONWOOD       CLOUDY    12   9  85 N10G16    29.80S WCI  -1
$$

ABBREVIATIONS USED IN REMARKS
   TC - TEMPERATURE IN CELSIUS
  WCI - WIND CHILL INDEX
   HX - HEAT INDEX
  VSB - VISIBILITY





USA.gov is the U.S. government's official web portal to all federal, state and local government web resources and services.